Regional Weather Roundup
Issued by NWS

Home | Current Version | Previous Version | Text Only | Print | Product List | Glossary On
Versions: 1 2 3 4 5 6 7 8 9 10 11 12 13 14 15 16 17 18 19 20 21 22 23 24 25 26 27 28 29 30 31 32 33 34 35 36 37 38 39 40 41 42 43 44 45 46 47 48 49 50
000
ASUS46 KLOX 291013
RWRCA

SOUTHERN CALIFORNIA WEATHER ROUNDUP
NATIONAL WEATHER SERVICE OXNARD CALIFORNIA
300 AM PDT WED JUL 29 2015

NOTE: "FAIR" INDICATES FEW OR NO CLOUDS BELOW 12,000 FEET WITH NO
SIGNIFICANT WEATHER AND/OR OBSTRUCTIONS TO VISIBILITY.

  -  STATIONS PRECEEDED BY AN ASTERISK (*) ARE NOT NWS OR FAA
     STATIONS AND ARE NOT SUBJECT TO NWS AND FAA QUALITY CONTROL.

CAZ041-042-087-291100-
LA AND ORANGE COUNTY COASTAL AREAS


CITY           SKY/WX    TMP DP  RH WIND       PRES   REMARKS
L.A. DOWNTOWN  PTCLDY    66  62  87 CALM      29.89F
L.A. AIRPORT   CLOUDY    66  63  90 NW5       29.90F
LONG BEACH     CLOUDY    69  64  84 NW3       29.90F

CITY           SKY/WX    TMP DP  RH WIND       PRES   REMARKS
AVALON           N/A     68 N/A N/A MISG        N/A
FULLERTON      CLOUDY    71  65  81 CALM      29.89F
HAWTHORNE      CLOUDY    68  63  84 CALM      29.90F
*LOS ALAMITOS  FAIR      66  65  96 NW1       29.90F
*REDONDO BEACH   N/A     67  63  87 CALM      29.90F
SANTA ANA      CLOUDY    70  64  81 S3        29.90F
STA MONICA APT CLOUDY    66  63  90 S3        29.90F

$$

CAZ547-548-048-291100-
LA COUNTY VALLEYS AND INLAND EMPIRE


CITY           SKY/WX    TMP DP  RH WIND       PRES   REMARKS
BURBANK        CLEAR     68  62  81 CALM      29.91S
VAN NUYS       CLEAR     67  62  84 CALM      29.91F

CITY           SKY/WX    TMP DP  RH WIND       PRES   REMARKS
CORONA AIRPORT SUNNY     66  63  90 CALM      29.91F
CHINO          CLEAR     67  62  84 CALM      29.92S
MARCH AFB      CLEAR     66  64  94 NW3       29.92F
*NORTHRIDGE      N/A     66  61  82 CALM        N/A
ONTARIO        CLEAR     67  61  81 W3        29.91F
*PASADENA        N/A     68  61  77 CALM        N/A
RIVERSIDE      CLEAR     69  62  78 VRB3      29.91F
SAN BERNARDINO NOT AVBL
*SAN GABRIEL     N/A     67  64  88 W2        29.96F
*WHITEMAN AP   NOT AVBL
*WOODLAND HILL   N/A     64  59  82 S1          N/A

$$

CAZ054-055-291100-
LA AND SAN BERNARDINO COUNTY MOUNTAINS


CITY           SKY/WX    TMP DP  RH WIND       PRES   REMARKS
*BIG BEAR AIRP SUNNY     45  32  61 CALM      30.29R
SANDBERG       CLEAR     75  13   9 S9        30.11S

$$

CAZ028-029-059-060-099-291100-
ANTELOPE VALLEY AND SURROUNDING AREAS


CITY           SKY/WX    TMP DP  RH WIND       PRES   REMARKS
LANCASTER      CLEAR     72  40  31 CALM      29.96S
PALMDALE       CLEAR     69  44  40 SW7       29.97F

CITY           SKY/WX    TMP DP  RH WIND       PRES   REMARKS
29 PALMS       CLEAR     80  46  30 CALM      29.99S
BARSTOW/DAGGET CLEAR     79  30  16 W12       29.92S
BISHOP         CLEAR     69  29  22 NW3       30.11S
CHINA LAKE     CLEAR     72  29  20 NW5       29.93S
EDWARDS AFB    CLEAR     71  43  36 SW6       29.93F
MOJAVE         CLEAR     72  41  33 NW5       29.97F
NEEDLES        MOCLDY    93  42  17 SW5       29.84R
VICTORVILLE    CLEAR     72  41  33 CALM      29.99S

$$

CAZ039-040-291100-
VENTURA AND SANTA BARBARA COUNTY COAST


CITY           SKY/WX    TMP DP  RH WIND       PRES   REMARKS
CAMARILLO      CLOUDY    66  61  84 CALM      29.90F
OXNARD AIRPORT CLOUDY    65  62  90 SW3       29.90F
*POINT MUGU    CLOUDY    68  63  84 SE3       29.91S HAZE
SBA APT/GOLETA CLOUDY    63  61  93 S6        29.90F FOG
*SANTA BARBARA   N/A     64  60  85 CALM      29.98S
*VENTURA         N/A     66  63  89 CALM      29.50S

$$

CAZ044-045-291100-
VENTURA COUNTY VALLEYS


CITY           SKY/WX    TMP DP  RH WIND       PRES   REMARKS
*SIMI VALLEY     N/A     61  58  90 CALM      29.85S
*OJAI            N/A     58  55  90 CALM      29.84S
*FILLMORE        N/A     63  59  87 CALM      29.81R

$$

CAZ053-291100-
VENTURA COUNTY MOUNTAINS


CITY           SKY/WX    TMP DP  RH WIND       PRES   REMARKS

$$

CAZ034-035-036-291100-
CENTRAL COAST AND SANTA YNEZ VALLEY


CITY           SKY/WX    TMP DP  RH WIND       PRES   REMARKS
SAN LUIS OBISP CLOUDY    60  58  92 SE3       29.91S FOG
SANTA MARIA    CLOUDY    61  60  97 CALM      29.91S FOG

CITY           SKY/WX    TMP DP  RH WIND       PRES   REMARKS
*CAL POLY SLO    N/A     59  59 100 CALM        N/A
*LOMPOC        CLOUDY    59  54  82 CALM      29.92S
*PISMO BEACH     N/A     60  58  96 CALM      29.91S
*SANTA YNEZ    FOG       55  54  94 W3        29.91S VSB 1/2

$$

CAZ037-038-051-291100-
SAN LUIS OBISPO COUNTY INTERIOR AND CUYAMA VALLEY


CITY           SKY/WX    TMP DP  RH WIND       PRES   REMARKS
*CUYAMA          N/A     64  46  52 SE3       29.83F
PASO ROBLES    CLEAR     62  53  72 CALM      29.90S

$$

CAZ032-033-061-291100-
SOUTHERN DESERTS


CITY           SKY/WX    TMP DP  RH WIND       PRES   REMARKS
BLYTHE         PTCLDY    91  65  41 S12       29.83S HX  93
IMPERIAL       LGT RAIN  87  74  64 SE15      29.78R HX  95
PALM SPRINGS   CLEAR     86  58  38 VRB3      29.84S
THERMAL        CLEAR     81  62  52 NE3       29.79R

$$

ELSEWHERE ACROSS THE WESTERN UNITED STATES AND MEXICO


CITY           SKY/WX    TMP DP  RH WIND       PRES   REMARKS
DENVER, CO     MOCLDY    59  43  55 S13       30.30R
GRAND CANYON,  MOCLDY    49  26  41 CALM      30.29S
HONOLULU, HI   PTCLDY    81  72  74 E9        29.96F
KAHULUI, MAUI  PTCLDY    79  70  73 E3        29.96S
LAKE TAHOE, CA CLEAR     48  32  53 CALM      30.29S
LAS VEGAS, NV  PTCLDY    84  30  14 SW8       29.88S
MAMMOTH LAKES, FAIR      54  27  35 W6        30.35S
MEXICO CITY, M MOCLDY    61  52  72 W6        30.34F
PHOENIX, AZ    CLOUDY    88  61  40 SE8       29.91R
PORTLAND, OR   CLEAR     67  51  56 NW6       30.12S
RENO, NV       CLEAR     63  27  25 W3        30.20S
SALT LAKE CITY CLEAR     58  36  43 SE6       30.25S
SAN DIEGO, CA  MOCLDY    70  61  73 W5        29.92S
SAN FRANCISCO, CLEAR     62  57  83 W7        29.86F
SAN JOSE, CA   CLEAR     67  52  58 S3        29.86F
SEATTLE, WA    CLEAR     64  53  67 NE7       30.19F
TIJUANA, MEX   MOCLDY    66  59  77 CALM      29.93S

$$

STATION/POSITION TIME  TEMP    WIND        PRES    VSBY  WAVE
                       AIR SEA DIR/SP/G                  HT/PER
                 (UTC) (F)     (DEG/KT/KT) (MB)    (MI)  (FT/S)
POINT ARGUELLO B NOT AVBL
WEST SANTA BARBA 0950   59 59  300/ 10/ 12 1012.2R         5/16
POINT CONCEPTION NOT AVBL
EAST SANTA BARBA 0900   61 66  220/  8/ 10 1013.5R
SANTA MONICA BAY 0950   67 72   CALM  /  2 1012.7F         4/16


USA.gov is the U.S. government's official web portal to all federal, state and local government web resources and services.